Location: Lafig�re
(44.4503°N, 4.0357°E)
Time: 15:29:23
(UTC+00:00)

Vanguard 2 Rocket - Pass Details

Date: 02 February 2021
Orbit: 554 x 3325 km, 32.9° (Epoch: 06 March)

Event Time Altitude Azimuth Distance (km) Brightness Sun altitude
Rises 10:53:25 0° 220° (SW) 7,164 11.9 27.1°
Reaches altitude 10° 10:58:42 10° 214° (SSW) 6,253 11.8 27.4°
Maximum altitude 11:16:08 38° 155° (SSE) 4,083 12.2 28.1°
Drops below altitude 10° 11:30:02 10° 95° (E) 5,053 10.9 28.6°
Sets 11:33:42 0° 87° (E) 5,721 11.0 28.6°
